AirNav   ATP
 
 1343 users online  

9B1 Marlboro Airport
Marlboro, Massachusetts, USA

GOING TO MARLBORO?


FAA INFORMATION EFFECTIVE 06 DECEMBER 2018

Location

FAA Identifier: 9B1
Lat/Long: 42-20-35.4000N / 071-30-32.4000W
42-20.590000N / 071-30.540000W
42.3431667 / -71.5090000
(estimated)
Elevation: 285 ft. / 87 m (estimated)
Variation: 15W (1985)
From city: 2 miles E of MARLBORO, MA
Time zone: UTC -5 (UTC -4 during Daylight Saving Time)
Zip code: 01752

Airport Operations

Airport use: Open to the public
Activation date: 04/1940
Control tower: no
ARTCC: BOSTON CENTER
FSS: BRIDGEPORT FLIGHT SERVICE STATION
NOTAMs facility: BDR (NOTAM-D service available)
Attendance: 0800-DUSK
Pattern altitude: 1385 ft. MSL
Wind indicator: yes
Segmented circle: no

Airport Communications

CTAF/UNICOM: 122.8
WX ASOS at BED (12 nm NE): 124.6 (781-274-9733)
WX ASOS at FIT (17 nm NW): 135.175 (978-343-9121)
WX ASOS at ORH (17 nm W): PHONE 508-795-7546
WX ASOS at OWD (18 nm SE): 119.95 (781-762-4314)
  • CLNC DLVY THRU BRIDGEPORT RADIO (BDR) 1-866-293-5149.

Nearby radio navigation aids

VOR radial/distance  VOR name  Freq  Var
BOSr284/23.0BOSTON VOR/DME112.7016W
GDMr131/27.2GARDNER VOR/DME110.6014W
PUTr047/27.6PUTNAM VOR/DME117.4014W
LWMr233/30.1LAWRENCE VOR/DME112.5015W
MHTr206/32.1MANCHESTER VOR/DME114.4015W
PVDr009/37.3PROVIDENCE VOR/DME115.6014W

 
NDB name  Hdg/Dist  Freq  Var  ID
BEDDS229/9.833216WBE -... .
SHAKER HILL261/16.125116WSKR ... -.- .-.
FITCHBURG154/16.636515WFIT ..-. .. -
TAUNTON338/35.622716WTAN - .- -.
MARSHFIELD308/39.836816WIMR .. -- .-.

Airport Services

Fuel available: 100LL
Parking: tiedowns
Airframe service: MAJOR
Powerplant service: MAJOR
Bottled oxygen: NONE
Bulk oxygen: NONE

Runway Information

Runway 14/32

Dimensions: 1659 x 45 ft. / 506 x 14 m
Surface: asphalt, in fair condition
Weight bearing capacity: 
Single wheel: 9.0
RUNWAY 14  RUNWAY 32
Latitude: 42-20.660635N42-20.518642N
Longitude: 071-30.696752W071-30.382200W
Elevation: 278.3 ft.273.1 ft.
Gradient: 0.3% UP
Traffic pattern: leftleft
Markings: basic, in fair conditionbasic, in fair condition
Obstructions: 80 ft. trees, 600 ft. from runway, 63 ft. left of centerline, 5:1 slope to clear
+15' ROAD & 4' FENCE ALONG ROAD.
72 ft. trees, 200 ft. from runway, 1:1 slope to clear
RY 32 HAS +72 FT TREES ON CNTRLN 200 FT FM THLD.

Airport Ownership and Management from official FAA records

Ownership: Privately-owned
Owner: SANDY STETSON
685 FARM ROAD
MARLBORO, MA 01752
Phone 508-485-0069
Manager: SANDY STETSON
685 FARM ROAD
MARLBORO, MA 01752
Phone 508-485-0069

Airport Operational Statistics

Aircraft based on the field: 25
Single engine airplanes: 24
Helicopters: 1
    
Aircraft operations: avg 48/day *
96% local general aviation
3% transient general aviation
<1% air taxi
<1% military
* for 12-month period ending 27 April 2016

Additional Remarks

NO NGT OPNS.
NO TGLS.
NO LOW APCHS BLW 500 FT AGL.
WILDLIFE ON AND INVOF ARPT.
FOR CD CTC BOSTON APCH AT 603-594-5551.

Instrument Procedures

There are no published instrument procedures at 9B1.

Some nearby airports with instrument procedures:

6B6 - Minute Man Air Field (7 nm N)
KBED - Laurence G Hanscom Field Airport (12 nm NE)
1B6 - Hopedale Industrial Park Airport (14 nm S)
KFIT - Fitchburg Municipal Airport (17 nm NW)
KORH - Worcester Regional Airport (17 nm W)
KOWD - Norwood Memorial Airport (18 nm SE)
 
Loc | Ops | Rwys | IFR | FBO | Links
Com | Nav | Svcs | Stats | Notes


 
Area around 9B1 (Marlboro Airport)
 
Road maps at: MapQuest Bing Google
 
Aerial photo
WARNING: Photo may not be current or correct
Aerial photo of 9B1 (Marlboro Airport)
Photo by Pete Chaisson, Portland Flight Services
Photo taken 15-May-2015
looking west.

Do you have a better or more recent aerial photo of Marlboro Airport that you would like to share? If so, please send us your photo.

 
Sectional chart

 
Airport distance calculator
Flying to Marlboro Airport? Find the distance to fly.

From to 9B1

Sunrise and sunset
Times for 12-Dec-2018
 Local
(UTC-5)
 Zulu
(UTC)
Morning civil twilight06:3511:35
Sunrise07:0712:07
Sunset16:1321:13
Evening civil twilight16:4421:44

Current date and time
Zulu (UTC)  12-Dec-2018 17:43:20
Local (UTC-5)  12-Dec-2018 12:43:20
 
METAR
KBED 
12nm NE 
121656Z 32016G22KT 10SM SCT050 03/M10 A3003 RMK AO2 PK WND 31026/1638 SLP184 T00281100
KFIT 
16nm NW 
121652Z AUTO 34016G23KT 10SM SCT050 00/M11 A3005 RMK AO2 SLP181 T00001106
KORH 
17nm W 
121654Z 33013G19KT 10SM BKN038 M01/M09 A3001 RMK AO2 PK WND 31027/1614 SLP175 T10111094
KOWD 
18nm SE 
121653Z 31010G23KT 10SM FEW048 03/M09 A3004 RMK AO2 SLP172 T00281089
KMQE 
19nm SE 
121656Z AUTO 31009G22KT 01/M09 A2998 RMK AO1 SLP171 T00111094
KBOS 
22nm E 
121654Z 31019G25KT 10SM FEW050 03/M10 A3003 RMK AO2 SLP167 T00331100
TAF
KBED 
12nm NE 
121135Z 1212/1312 30006KT P6SM SCT050 FM121600 32010G18KT P6SM SKC FM122300 34006KT P6SM SKC FM130400 00000KT P6SM FEW050
KORH 
17nm W 
121135Z 1212/1312 31012KT P6SM SCT070 BKN120 FM121500 32012G18KT P6SM FEW050 FM122300 34010KT P6SM FEW050 FM130200 01006KT P6SM FEW050
NOTAMs
Click for the latest NOTAMs
NOTAMs are issued by the DoD/FAA and will open in a separate window not controlled by AirNav.

 

 
 

Would you like to see your business listed on this page?

 If your business provides an interesting product or service to pilots, flight crews, aircraft, or users of the Marlboro Airport, you should consider listing it here.  To start the listing process, click on the button below
 
Add a business
 

Other Pages about Marlboro Airport

www.marlboroairport.org
 
Update a link
 
Copyright © AirNav, LLC. All rights reserved. Privacy Policy  Contact